AFL1010 UACC-UNNT

Flight info

Callsign AFL1010
Flight time N/A
Altitude 35000
Route OLGAS M75 AMOLA/K0833F360 M75 POBUR/K0830F370 M75 DAKIN B944 GOLIM GOLIM1K
Aircraft A20N/M-SDE2E3FGHIRWXY/LB1

Departure

Time 2026-04-21 13:50
Airport Nursultan Nazarbayev International Airport (UACC)

Arrival

Time N/A
Airport Novosibirsk Tolmachevo Airport (UNNT)
Time Latitude Longitude Altitude Speed Heading
2026-04-21 13:23 51.02666 71.46222 1170 ft 0 kts 317°
2026-04-21 13:42 51.02657 71.46235 1190 ft 2 kts 317°
2026-04-21 13:42 51.02646 71.46252 1160 ft 2 kts 315°
2026-04-21 13:42 51.02630 71.46285 1166 ft 4 kts 285°
2026-04-21 13:43 51.02631 71.46329 1166 ft 3 kts 234°
2026-04-21 13:43 51.02633 71.46333 1165 ft 0 kts 228°
2026-04-21 13:45 51.02630 71.46328 1166 ft 2 kts 228°
2026-04-21 13:46 51.02614 71.46299 1167 ft 5 kts 229°
2026-04-21 13:46 51.02581 71.46244 1168 ft 8 kts 225°
2026-04-21 13:46 51.02534 71.46170 1170 ft 11 kts 225°
2026-04-21 13:46 51.02464 71.46103 1168 ft 13 kts 183°
2026-04-21 13:47 51.02384 71.46187 1166 ft 15 kts 132°
2026-04-21 13:47 51.02376 71.46341 1169 ft 17 kts 50°
2026-04-21 13:47 51.02465 71.46485 1167 ft 20 kts 45°
2026-04-21 13:47 51.02567 71.46646 1170 ft 22 kts 44°
2026-04-21 13:48 51.02680 71.46823 1166 ft 22 kts 45°
2026-04-21 13:48 51.02717 71.46978 1168 ft 10 kts 122°
2026-04-21 13:48 51.02702 71.47005 1164 ft 0 kts 134°
2026-04-21 13:49 51.02694 71.47017 1167 ft 3 kts 134°
2026-04-21 13:49 51.02670 71.47057 1168 ft 7 kts 134°
2026-04-21 13:49 51.02630 71.47109 1168 ft 8 kts 152°
2026-04-21 13:49 51.02570 71.47106 1169 ft 10 kts 208°
2026-04-21 13:50 51.02487 71.46983 1172 ft 43 kts 224°
2026-04-21 13:50 51.02062 71.46321 1169 ft 124 kts 224°
2026-04-21 13:50 51.01318 71.45131 1363 ft 169 kts 226°
2026-04-21 13:50 51.00452 71.43694 1974 ft 194 kts 226°
2026-04-21 13:51 50.99448 71.42012 2561 ft 221 kts 224°
2026-04-21 13:51 50.98345 71.40272 3612 ft 231 kts 223°
2026-04-21 13:51 50.97146 71.38430 4276 ft 251 kts 223°
2026-04-21 13:51 50.96017 71.36241 5041 ft 263 kts 245°
2026-04-21 13:52 50.95783 71.33365 6029 ft 270 kts 279°
2026-04-21 13:52 50.96613 71.30690 6974 ft 278 kts 313°
2026-04-21 13:52 50.98266 71.29119 7931 ft 283 kts 346°
2026-04-21 13:52 51.00232 71.28895 8930 ft 286 kts
2026-04-21 13:53 51.02235 71.29106 9542 ft 290 kts
2026-04-21 13:53 51.04242 71.29418 9766 ft 290 kts
2026-04-21 13:53 51.06253 71.29757 9853 ft 291 kts
2026-04-21 13:53 51.08267 71.30101 9858 ft 291 kts
2026-04-21 13:54 51.10291 71.30327 9851 ft 292 kts 357°
2026-04-21 13:54 51.12301 71.29840 9855 ft 304 kts 341°
2026-04-21 13:54 51.14294 71.28311 9855 ft 329 kts 326°
2026-04-21 13:54 51.16231 71.26324 9851 ft 331 kts 326°
2026-04-21 13:55 51.18122 71.24337 9849 ft 319 kts 325°
2026-04-21 13:55 51.19918 71.22421 9847 ft 302 kts 325°
2026-04-21 13:55 51.21626 71.20583 9767 ft 295 kts 324°
2026-04-21 13:55 51.23303 71.18770 9845 ft 288 kts 324°
2026-04-21 13:56 51.24954 71.16983 9840 ft 286 kts 324°
2026-04-21 13:56 51.26636 71.15162 9841 ft 306 kts 324°
2026-04-21 13:56 51.28498 71.13195 9838 ft 332 kts 330°
2026-04-21 13:56 51.30726 71.12109 10243 ft 342 kts 354°
2026-04-21 13:57 51.33068 71.12495 11128 ft 347 kts 16°
2026-04-21 13:57 51.35306 71.14027 11935 ft 353 kts 26°
2026-04-21 13:57 51.37507 71.15824 12753 ft 358 kts 27°
2026-04-21 13:57 51.39729 71.17696 13566 ft 363 kts 28°
2026-04-21 13:58 51.41980 71.19588 14327 ft 366 kts 27°
2026-04-21 13:58 51.44246 71.21479 15137 ft 368 kts 27°
2026-04-21 13:58 51.46530 71.23369 15910 ft 371 kts 26°
2026-04-21 13:58 51.48834 71.25267 16668 ft 374 kts 26°
2026-04-21 13:59 51.51157 71.27181 17410 ft 377 kts 25°
2026-04-21 13:59 51.53508 71.29118 18158 ft 380 kts 25°
2026-04-21 13:59 51.55876 71.31072 18767 ft 384 kts 25°
2026-04-21 13:59 51.58261 71.33042 19366 ft 388 kts 25°
2026-04-21 14:00 51.60677 71.35040 19958 ft 392 kts 25°
2026-04-21 14:00 51.63117 71.37060 20554 ft 396 kts 25°
2026-04-21 14:00 51.65581 71.39103 21136 ft 400 kts 25°
2026-04-21 14:00 51.68064 71.41164 21716 ft 404 kts 25°
2026-04-21 14:01 51.70578 71.43255 22286 ft 408 kts 25°
2026-04-21 14:01 51.73121 71.45371 22856 ft 412 kts 25°
2026-04-21 14:01 51.75682 71.47505 23420 ft 416 kts 25°
2026-04-21 14:01 51.78269 71.49664 23717 ft 420 kts 25°
2026-04-21 14:02 51.80868 71.51837 23814 ft 420 kts 25°
2026-04-21 14:02 51.83461 71.54007 23831 ft 420 kts 25°
2026-04-21 14:02 51.86055 71.56181 23831 ft 420 kts 25°
2026-04-21 14:03 51.91222 71.60518 23829 ft 420 kts 25°
2026-04-21 14:03 51.93730 71.62626 23833 ft 420 kts 25°
2026-04-21 14:03 51.96320 71.64807 23832 ft 421 kts 25°
2026-04-21 14:03 51.98920 71.66999 23835 ft 421 kts 25°
2026-04-21 14:04 52.01516 71.69190 23835 ft 421 kts 25°
2026-04-21 14:04 52.04115 71.71387 23836 ft 421 kts 25°
2026-04-21 14:04 52.06722 71.73553 23836 ft 421 kts 22°
2026-04-21 14:04 52.09467 71.75246 24109 ft 422 kts 14°
2026-04-21 14:05 52.12307 71.76348 24674 ft 420 kts
2026-04-21 14:05 52.15191 71.77263 25137 ft 424 kts
2026-04-21 14:05 52.18090 71.78209 25588 ft 427 kts
2026-04-21 14:05 52.21019 71.79167 26039 ft 430 kts
2026-04-21 14:06 52.23970 71.80128 26479 ft 433 kts
2026-04-21 14:06 52.26935 71.81091 26911 ft 436 kts
2026-04-21 14:06 52.29924 71.82059 27323 ft 439 kts
2026-04-21 14:06 52.32924 71.83031 27731 ft 442 kts
2026-04-21 14:07 52.35918 71.84002 28122 ft 445 kts
2026-04-21 14:07 52.38963 71.84991 28504 ft 448 kts
2026-04-21 14:07 52.42032 71.85989 28869 ft 451 kts
2026-04-21 14:07 52.45120 71.86995 29230 ft 453 kts
2026-04-21 14:08 52.48226 71.88008 29579 ft 456 kts
2026-04-21 14:08 52.51350 71.89029 29918 ft 459 kts
2026-04-21 14:08 52.54490 71.90056 30219 ft 462 kts
2026-04-21 14:08 52.57655 71.91093 30543 ft 464 kts
2026-04-21 14:09 52.60828 71.92134 30854 ft 466 kts
2026-04-21 14:09 52.64019 71.93183 31218 ft 467 kts
2026-04-21 14:09 52.67206 71.94209 31635 ft 466 kts
2026-04-21 14:09 52.70386 71.95156 32062 ft 465 kts
2026-04-21 14:10 52.73569 71.96080 32470 ft 464 kts
2026-04-21 14:10 52.76752 71.97007 32868 ft 463 kts
2026-04-21 14:10 52.79678 71.97867 33230 ft 462 kts
2026-04-21 14:10 52.82845 71.98805 33610 ft 462 kts
2026-04-21 14:11 52.86007 71.99747 33949 ft 462 kts
2026-04-21 14:11 52.89174 72.00694 34241 ft 462 kts
2026-04-21 14:11 52.92337 72.01641 34515 ft 462 kts
2026-04-21 14:11 52.95502 72.02590 34755 ft 462 kts
2026-04-21 14:12 52.98673 72.03542 34828 ft 461 kts
2026-04-21 14:12 53.04985 72.05445 34823 ft 460 kts
2026-04-21 14:13 53.11300 72.07357 34819 ft 461 kts
2026-04-21 14:13 53.17612 72.09274 34819 ft 461 kts
2026-04-21 14:14 53.23930 72.11199 34813 ft 462 kts
2026-04-21 14:14 53.30256 72.13131 34825 ft 463 kts
2026-04-21 14:15 53.36558 72.15062 34828 ft 463 kts
2026-04-21 14:15 53.42904 72.17013 34826 ft 464 kts
2026-04-21 14:16 53.49254 72.18971 34831 ft 464 kts
2026-04-21 14:16 53.55600 72.20934 34825 ft 464 kts
2026-04-21 14:17 53.61952 72.22904 34830 ft 464 kts
2026-04-21 14:17 53.68307 72.24919 34830 ft 464 kts
2026-04-21 14:18 53.74648 72.26989 34825 ft 464 kts
2026-04-21 14:18 53.80987 72.29056 34825 ft 463 kts
2026-04-21 14:19 53.87317 72.31121 34825 ft 463 kts
2026-04-21 14:19 53.93603 72.33177 34826 ft 463 kts
2026-04-21 14:20 53.99927 72.35252 34819 ft 462 kts
2026-04-21 14:20 54.06245 72.37339 34816 ft 463 kts
2026-04-21 14:21 54.11266 72.40693 34811 ft 474 kts 27°
2026-04-21 14:21 54.13926 72.44070 34807 ft 480 kts 40°
2026-04-21 14:21 54.16161 72.48335 34804 ft 484 kts 53°
2026-04-21 14:21 54.17855 72.53317 34801 ft 487 kts 65°
2026-04-21 14:22 54.18957 72.58799 34826 ft 490 kts 73°
2026-04-21 14:22 54.19646 72.62877 34829 ft 492 kts 73°
2026-04-21 14:23 54.21544 72.74088 34826 ft 491 kts 73°
2026-04-21 14:23 54.23421 72.85250 34834 ft 491 kts 73°
2026-04-21 14:24 54.25295 72.96478 34834 ft 491 kts 73°
2026-04-21 14:24 54.27160 73.07728 34837 ft 491 kts 74°
2026-04-21 14:25 54.29014 73.18989 34834 ft 491 kts 74°
2026-04-21 14:25 54.30858 73.30260 34838 ft 491 kts 74°
2026-04-21 14:26 54.32691 73.41539 34837 ft 491 kts 74°
2026-04-21 14:26 54.34515 73.52828 34838 ft 491 kts 74°
2026-04-21 14:27 54.36319 73.64074 34843 ft 492 kts 74°
2026-04-21 14:27 54.38120 73.75375 34841 ft 492 kts 74°
2026-04-21 14:28 54.39920 73.86736 34846 ft 492 kts 74°
2026-04-21 14:28 54.41706 73.98104 34849 ft 493 kts 74°
2026-04-21 14:29 54.43472 74.09403 34851 ft 493 kts 75°
2026-04-21 14:29 54.45239 74.20793 34856 ft 493 kts 75°
2026-04-21 14:30 54.46998 74.32208 34860 ft 494 kts 75°
2026-04-21 14:30 54.48747 74.43638 34867 ft 494 kts 75°
2026-04-21 14:31 54.50486 74.55086 34867 ft 494 kts 75°
2026-04-21 14:31 54.52213 74.66542 34875 ft 495 kts 75°
2026-04-21 14:32 54.53921 74.77948 34876 ft 495 kts 75°
2026-04-21 14:32 54.55629 74.89435 34885 ft 495 kts 75°
2026-04-21 14:33 54.57326 75.00926 34886 ft 495 kts 75°
2026-04-21 14:33 54.59011 75.12431 34886 ft 495 kts 75°
2026-04-21 14:34 54.60691 75.23977 34887 ft 496 kts 75°
2026-04-21 14:34 54.62351 75.35472 34888 ft 496 kts 75°
2026-04-21 14:35 54.64012 75.47063 34895 ft 497 kts 75°
2026-04-21 14:35 54.65665 75.58679 34897 ft 498 kts 75°
2026-04-21 14:36 54.67298 75.70243 34902 ft 498 kts 75°
2026-04-21 14:36 54.68932 75.81891 34908 ft 499 kts 75°
2026-04-21 14:37 54.70558 75.93557 34917 ft 500 kts 75°
2026-04-21 14:37 54.72174 76.05252 34924 ft 500 kts 76°
2026-04-21 14:38 54.73782 76.16977 34930 ft 501 kts 76°
2026-04-21 14:38 54.75379 76.28714 34939 ft 501 kts 76°
2026-04-21 14:39 54.76967 76.40483 34944 ft 502 kts 76°
2026-04-21 14:39 54.78544 76.52257 34949 ft 502 kts 76°
2026-04-21 14:40 54.80111 76.64057 34950 ft 502 kts 76°